APG118 VHHH-RPLL

Flight info

Callsign APG118
Flight time N/A
Altitude 41000
Route DALOL V642 NOMAN A461 AVMUP W16 TADEL TADEL5R
Aircraft A333/H-SDE3GHIJ2J3J5M1RVWXY/LB2D1

Departure

Time 2026-04-30 10:41
Airport Hong Kong International Airport (VHHH)

Arrival

Time N/A
Airport Ninoy Aquino International Airport (RPLL)
Time Latitude Longitude Altitude Speed Heading
2026-04-30 10:34 22.30684 113.91691 40 ft 0 kts 161°
2026-04-30 10:35 22.30675 113.91695 40 ft 4 kts 161°
2026-04-30 10:35 22.30629 113.91711 40 ft 8 kts 161°
2026-04-30 10:35 22.30564 113.91737 40 ft 10 kts 148°
2026-04-30 10:36 22.30548 113.91804 40 ft 10 kts 77°
2026-04-30 10:36 22.30571 113.91887 40 ft 12 kts 72°
2026-04-30 10:36 22.30601 113.91979 40 ft 15 kts 70°
2026-04-30 10:36 22.30635 113.92082 40 ft 17 kts 70°
2026-04-30 10:37 22.30675 113.92199 40 ft 19 kts 70°
2026-04-30 10:37 22.30719 113.92332 40 ft 21 kts 70°
2026-04-30 10:37 22.30811 113.92612 40 ft 25 kts 72°
2026-04-30 10:38 22.30854 113.92754 40 ft 26 kts 71°
2026-04-30 10:38 22.30909 113.92926 40 ft 28 kts 71°
2026-04-30 10:38 22.30939 113.93126 40 ft 21 kts 114°
2026-04-30 10:38 22.30871 113.93213 40 ft 8 kts 154°
2026-04-30 10:39 22.30856 113.93220 40 ft 0 kts 159°
2026-04-30 10:39 22.30820 113.93235 40 ft 8 kts 159°
2026-04-30 10:39 22.30753 113.93243 40 ft 10 kts 204°
2026-04-30 10:39 22.30713 113.93190 40 ft 8 kts 248°
2026-04-30 10:40 22.30710 113.93181 40 ft 0 kts 249°
2026-04-30 10:40 22.30708 113.93175 40 ft 12 kts 249°
2026-04-30 10:40 22.30590 113.92809 40 ft 90 kts 251°
2026-04-30 10:40 22.30306 113.91927 41 ft 156 kts 251°
2026-04-30 10:41 22.29917 113.90677 305 ft 187 kts 253°
2026-04-30 10:41 22.29490 113.89397 1143 ft 181 kts 251°
2026-04-30 10:41 22.29071 113.88105 1915 ft 191 kts 252°
2026-04-30 10:41 22.28618 113.86716 2663 ft 204 kts 249°
2026-04-30 10:42 22.27858 113.85381 3196 ft 217 kts 236°
2026-04-30 10:42 22.26981 113.84016 3821 ft 226 kts 237°
2026-04-30 10:42 22.26097 113.82626 4631 ft 226 kts 236°
2026-04-30 10:42 22.24922 113.81525 5403 ft 229 kts 205°
2026-04-30 10:43 22.23324 113.81207 5956 ft 245 kts 181°
2026-04-30 10:43 22.21585 113.81204 6490 ft 258 kts 184°
2026-04-30 10:43 22.19748 113.81482 7016 ft 271 kts 161°
2026-04-30 10:43 22.18151 113.82581 6973 ft 275 kts 134°
2026-04-30 10:44 22.16977 113.84244 7418 ft 285 kts 130°
2026-04-30 10:44 22.15915 113.85986 8412 ft 279 kts 114°
2026-04-30 10:44 22.15216 113.87929 8996 ft 281 kts 113°
2026-04-30 10:44 22.14470 113.89910 8954 ft 285 kts 113°
2026-04-30 10:45 22.13763 113.91924 8990 ft 285 kts 104°
2026-04-30 10:45 22.13523 113.94090 9185 ft 304 kts 95°
2026-04-30 10:45 22.13320 113.96373 9760 ft 314 kts 96°
2026-04-30 10:45 22.13109 113.98724 10020 ft 317 kts 96°
2026-04-30 10:46 22.12895 114.01104 10007 ft 323 kts 96°
2026-04-30 10:46 22.12674 114.03550 10512 ft 335 kts 96°
2026-04-30 10:46 22.12439 114.06125 10812 ft 353 kts 97°
2026-04-30 10:46 22.11987 114.08771 11020 ft 371 kts 101°
2026-04-30 10:47 22.11507 114.11556 11224 ft 389 kts 101°
2026-04-30 10:47 22.11007 114.14494 11656 ft 398 kts 101°
2026-04-30 10:47 22.10513 114.17400 12071 ft 399 kts 101°
2026-04-30 10:47 22.10008 114.20370 11961 ft 400 kts 101°
2026-04-30 10:48 22.09511 114.23298 12070 ft 408 kts 101°
2026-04-30 10:48 22.09002 114.26299 12803 ft 405 kts 101°
2026-04-30 10:48 22.08492 114.29299 13360 ft 409 kts 101°
2026-04-30 10:48 22.07978 114.32330 13829 ft 414 kts 101°
2026-04-30 10:49 22.07363 114.35347 14352 ft 415 kts 109°
2026-04-30 10:49 22.06055 114.38088 14860 ft 415 kts 126°
2026-04-30 10:49 22.04408 114.40653 15344 ft 418 kts 126°
2026-04-30 10:49 22.02751 114.43266 15847 ft 421 kts 126°
2026-04-30 10:50 22.01111 114.45864 16344 ft 424 kts 126°
2026-04-30 10:50 21.99448 114.48502 16821 ft 427 kts 126°
2026-04-30 10:50 21.97786 114.51138 17274 ft 430 kts 126°
2026-04-30 10:50 21.96071 114.53813 17739 ft 431 kts 128°
2026-04-30 10:51 21.94256 114.56374 18180 ft 433 kts 129°
2026-04-30 10:51 21.92425 114.58969 18589 ft 437 kts 129°
2026-04-30 10:51 21.90579 114.61589 19038 ft 439 kts 129°
2026-04-30 10:51 21.88718 114.64231 19424 ft 442 kts 129°
2026-04-30 10:52 21.86854 114.66875 19811 ft 445 kts 130°
2026-04-30 10:52 21.84994 114.69514 20181 ft 448 kts 130°
2026-04-30 10:52 21.83095 114.72206 20568 ft 450 kts 130°
2026-04-30 10:52 21.81192 114.74903 20927 ft 452 kts 130°
2026-04-30 10:53 21.79299 114.77584 21239 ft 456 kts 130°
2026-04-30 10:53 21.77375 114.80307 21581 ft 458 kts 130°
2026-04-30 10:53 21.75434 114.83055 21903 ft 460 kts 130°
2026-04-30 10:53 21.73505 114.85783 22224 ft 462 kts 130°
2026-04-30 10:54 21.71553 114.88543 22546 ft 464 kts 130°
2026-04-30 10:54 21.69602 114.91299 22873 ft 466 kts 130°
2026-04-30 10:54 21.67633 114.94080 23197 ft 468 kts 130°
2026-04-30 10:54 21.65650 114.96879 23494 ft 470 kts 130°
2026-04-30 10:55 21.63691 114.99641 23820 ft 472 kts 130°
2026-04-30 10:55 21.61680 115.02477 24155 ft 473 kts 130°
2026-04-30 10:55 21.59683 115.05293 24455 ft 475 kts 130°
2026-04-30 10:55 21.57682 115.08111 24745 ft 477 kts 130°
2026-04-30 10:56 21.55657 115.10962 25018 ft 480 kts 130°
2026-04-30 10:56 21.53644 115.13794 25285 ft 483 kts 130°
2026-04-30 10:56 21.51611 115.16654 25633 ft 483 kts 129°
2026-04-30 10:56 21.49574 115.19519 25947 ft 485 kts 130°
2026-04-30 10:57 21.47524 115.22401 26227 ft 487 kts 130°
2026-04-30 10:57 21.45456 115.25307 26485 ft 490 kts 130°
2026-04-30 10:57 21.43378 115.28223 26809 ft 491 kts 130°
2026-04-30 10:57 21.41318 115.31113 27091 ft 493 kts 130°
2026-04-30 10:58 21.39204 115.34081 27349 ft 495 kts 130°
2026-04-30 10:58 21.37119 115.37003 27602 ft 497 kts 129°
2026-04-30 10:58 21.35018 115.39947 27876 ft 499 kts 129°
2026-04-30 10:58 21.32906 115.42905 28151 ft 500 kts 129°
2026-04-30 10:59 21.30792 115.45863 28390 ft 502 kts 129°
2026-04-30 10:59 21.28662 115.48845 28644 ft 504 kts 129°
2026-04-30 10:59 21.26539 115.51813 28902 ft 505 kts 130°
2026-04-30 10:59 21.24390 115.54816 29137 ft 507 kts 129°
2026-04-30 11:00 21.22253 115.57802 29486 ft 506 kts 129°
2026-04-30 11:00 21.19860 115.61142 29891 ft 504 kts 130°
2026-04-30 11:00 21.17713 115.64138 30181 ft 505 kts 130°
2026-04-30 11:00 21.15601 115.67084 30543 ft 504 kts 130°
2026-04-30 11:01 21.13470 115.70052 30909 ft 502 kts 130°
2026-04-30 11:01 21.11332 115.73030 31219 ft 502 kts 130°
2026-04-30 11:01 21.09221 115.75970 31575 ft 501 kts 130°
2026-04-30 11:01 21.07091 115.78933 31899 ft 501 kts 130°
2026-04-30 11:02 21.04991 115.81853 32262 ft 499 kts 130°
2026-04-30 11:02 21.02859 115.84817 32615 ft 498 kts 130°
2026-04-30 11:02 21.00767 115.87724 32964 ft 497 kts 130°
2026-04-30 11:02 20.98647 115.90665 33322 ft 497 kts 130°
2026-04-30 11:03 20.96537 115.93594 33675 ft 497 kts 130°
2026-04-30 11:03 20.94446 115.96494 34053 ft 496 kts 130°
2026-04-30 11:03 20.92329 115.99430 34422 ft 496 kts 130°
2026-04-30 11:04 20.88120 116.05261 35194 ft 494 kts 130°
2026-04-30 11:04 20.86029 116.08150 35540 ft 493 kts 131°
2026-04-30 11:04 20.84015 116.10365 35779 ft 487 kts 144°
2026-04-30 11:04 20.81297 116.12335 36081 ft 483 kts 152°
2026-04-30 11:05 20.78446 116.14269 36422 ft 483 kts 151°
2026-04-30 11:05 20.75617 116.16186 36773 ft 482 kts 151°
2026-04-30 11:05 20.72756 116.18126 37070 ft 482 kts 151°
2026-04-30 11:05 20.69935 116.20036 37343 ft 482 kts 151°
2026-04-30 11:06 20.67095 116.21961 37635 ft 481 kts 151°
2026-04-30 11:06 20.64262 116.23877 37895 ft 481 kts 151°
2026-04-30 11:06 20.61426 116.25797 38084 ft 483 kts 151°
2026-04-30 11:06 20.58588 116.27717 38359 ft 482 kts 151°
2026-04-30 11:07 20.55795 116.29605 38594 ft 482 kts 151°
2026-04-30 11:07 20.52926 116.31543 38832 ft 481 kts 151°
2026-04-30 11:07 20.50127 116.33435 39095 ft 480 kts 151°
2026-04-30 11:07 20.47292 116.35349 39380 ft 479 kts 151°
2026-04-30 11:08 20.44474 116.37252 39600 ft 479 kts 151°
2026-04-30 11:08 20.41686 116.39131 39778 ft 479 kts 151°
2026-04-30 11:08 20.38854 116.41041 39964 ft 479 kts 151°
2026-04-30 11:08 20.36032 116.42944 40175 ft 478 kts 151°
2026-04-30 11:09 20.33248 116.44818 40386 ft 477 kts 151°
2026-04-30 11:09 20.30449 116.46704 40624 ft 476 kts 151°
2026-04-30 11:09 20.27622 116.48607 40809 ft 476 kts 151°
2026-04-30 11:09 20.24836 116.50482 40977 ft 475 kts 151°
2026-04-30 11:10 20.22031 116.52368 40946 ft 474 kts 151°
2026-04-30 11:10 20.16437 116.56126 40970 ft 479 kts 151°
2026-04-30 11:11 20.10762 116.59938 40967 ft 483 kts 151°
2026-04-30 11:11 20.05043 116.63776 40958 ft 485 kts 151°
2026-04-30 11:12 19.99473 116.67695 40924 ft 484 kts 142°
2026-04-30 11:12 19.94918 116.73018 40929 ft 489 kts 135°
2026-04-30 11:13 19.90334 116.78371 40946 ft 489 kts 135°
2026-04-30 11:13 19.85745 116.83694 40947 ft 488 kts 135°
2026-04-30 11:14 19.81164 116.88999 40946 ft 487 kts 135°
2026-04-30 11:14 19.76601 116.94280 40947 ft 487 kts 135°
2026-04-30 11:15 19.72010 116.99586 40945 ft 487 kts 135°
2026-04-30 11:15 19.67437 117.04870 40949 ft 487 kts 135°
2026-04-30 11:16 19.62872 117.10137 40947 ft 486 kts 135°
2026-04-30 11:16 19.58286 117.15425 40947 ft 486 kts 135°
2026-04-30 11:17 19.53717 117.20688 40945 ft 485 kts 135°
2026-04-30 11:17 19.49132 117.25964 40945 ft 485 kts 135°
2026-04-30 11:18 19.44587 117.31190 40947 ft 485 kts 135°
2026-04-30 11:18 19.37734 117.39062 40944 ft 484 kts 136°
2026-04-30 11:19 19.33185 117.44281 40946 ft 484 kts 136°
2026-04-30 11:19 19.28593 117.49545 40946 ft 484 kts 136°
2026-04-30 11:20 19.24051 117.54746 40948 ft 484 kts 136°
2026-04-30 11:20 19.19468 117.59991 40949 ft 483 kts 136°
2026-04-30 11:21 19.14888 117.65227 40951 ft 482 kts 136°
2026-04-30 11:21 19.10344 117.70416 40947 ft 482 kts 136°
2026-04-30 11:22 19.05778 117.75626 40948 ft 482 kts 136°
2026-04-30 11:22 19.01220 117.80826 40944 ft 482 kts 136°
2026-04-30 11:23 18.96678 117.85998 40941 ft 480 kts 136°
2026-04-30 11:24 18.89858 117.93761 40942 ft 480 kts 136°
2026-04-30 11:24 18.85331 117.98907 40943 ft 479 kts 136°
2026-04-30 11:25 18.78521 118.06641 40941 ft 477 kts 136°
2026-04-30 11:26 18.69447 118.16927 40941 ft 480 kts 137°
2026-04-30 11:26 18.64886 118.22092 40938 ft 480 kts 136°
2026-04-30 11:27 18.60369 118.27205 40937 ft 479 kts 137°
2026-04-30 11:27 18.55809 118.32359 40935 ft 478 kts 136°
2026-04-30 11:28 18.49030 118.40014 40942 ft 478 kts 137°
2026-04-30 11:29 18.44479 118.45150 40940 ft 477 kts 137°
2026-04-30 11:29 18.37675 118.52818 40949 ft 476 kts 137°
2026-04-30 11:30 18.30896 118.60449 40946 ft 479 kts 137°
2026-04-30 11:31 18.26368 118.65540 40952 ft 478 kts 137°
2026-04-30 11:31 18.21833 118.70634 40949 ft 476 kts 137°
2026-04-30 11:32 18.17297 118.75727 40950 ft 476 kts 137°
2026-04-30 11:32 18.12773 118.80801 40949 ft 475 kts 137°
2026-04-30 11:33 18.06011 118.88378 40941 ft 475 kts 137°
2026-04-30 11:33 18.01482 118.93448 40942 ft 475 kts 137°
2026-04-30 11:34 17.96397 118.97694 40986 ft 462 kts 157°
2026-04-30 11:34 17.90686 119.00887 40938 ft 466 kts 155°
2026-04-30 11:35 17.85008 119.04170 40943 ft 465 kts 155°
2026-04-30 11:35 17.79337 119.07453 40943 ft 465 kts 155°
2026-04-30 11:36 17.73671 119.10735 40944 ft 465 kts 155°
2026-04-30 11:36 17.68020 119.14005 40942 ft 465 kts 155°
2026-04-30 11:37 17.62352 119.17281 40941 ft 465 kts 155°
2026-04-30 11:37 17.56679 119.20558 40937 ft 465 kts 155°
2026-04-30 11:38 17.51100 119.23784 40674 ft 438 kts 155°
2026-04-30 11:38 17.48501 119.25285 40088 ft 421 kts 155°
2026-04-30 11:38 17.45965 119.26747 39210 ft 411 kts 155°
2026-04-30 11:39 17.43491 119.28175 38406 ft 401 kts 156°
2026-04-30 11:39 17.41075 119.29565 37601 ft 392 kts 156°
2026-04-30 11:39 17.38725 119.30919 36740 ft 386 kts 156°
2026-04-30 11:39 17.36409 119.32252 35937 ft 379 kts 156°
2026-04-30 11:40 17.34100 119.33583 35153 ft 372 kts 156°
2026-04-30 11:40 17.31855 119.34876 34334 ft 367 kts 156°
2026-04-30 11:40 17.29657 119.36141 33569 ft 361 kts 155°
2026-04-30 11:40 17.27467 119.37402 32843 ft 355 kts 155°
2026-04-30 11:41 17.25310 119.38642 32175 ft 349 kts 156°
2026-04-30 11:41 17.23207 119.39852 31500 ft 345 kts 156°
2026-04-30 11:41 17.21109 119.41059 30830 ft 341 kts 156°
2026-04-30 11:41 17.19050 119.42242 30205 ft 336 kts 156°
2026-04-30 11:42 17.17042 119.43397 29587 ft 332 kts 156°
2026-04-30 11:42 17.15009 119.44564 28967 ft 328 kts 156°
2026-04-30 11:42 17.13049 119.45691 28400 ft 323 kts 156°
2026-04-30 11:42 17.11085 119.46816 27752 ft 322 kts 155°
2026-04-30 11:43 17.09128 119.47939 27052 ft 322 kts 155°
2026-04-30 11:43 17.07157 119.49071 26340 ft 321 kts 155°
2026-04-30 11:43 17.05216 119.50183 25614 ft 321 kts 154°
2026-04-30 11:43 17.03242 119.51316 24856 ft 322 kts 154°
2026-04-30 11:44 17.01306 119.52427 24094 ft 322 kts 154°
2026-04-30 11:44 16.99337 119.53556 23317 ft 322 kts 153°
2026-04-30 11:44 16.97382 119.54677 22518 ft 322 kts 153°
2026-04-30 11:44 16.95414 119.55805 21696 ft 323 kts 153°
2026-04-30 11:45 16.93443 119.56935 20813 ft 326 kts 153°
2026-04-30 11:45 16.91469 119.58066 19924 ft 328 kts 152°
2026-04-30 11:45 16.89478 119.59207 19015 ft 329 kts 152°
2026-04-30 11:45 16.87494 119.60343 18076 ft 332 kts 152°
2026-04-30 11:46 16.85471 119.61500 17075 ft 335 kts 152°
2026-04-30 11:46 16.83423 119.62674 16107 ft 336 kts 152°
2026-04-30 11:46 16.81390 119.63838 15166 ft 335 kts 152°
2026-04-30 11:46 16.79347 119.65007 14409 ft 334 kts 152°
2026-04-30 11:47 16.77350 119.66150 14971 ft 319 kts 152°
2026-04-30 11:47 16.75382 119.67276 14894 ft 330 kts 152°
2026-04-30 11:47 16.73363 119.68430 14903 ft 335 kts 152°
2026-04-30 11:47 16.71302 119.69607 14924 ft 339 kts 152°
2026-04-30 11:48 16.69212 119.70802 14910 ft 343 kts 152°
2026-04-30 11:48 16.67086 119.72016 14910 ft 344 kts 152°
2026-04-30 11:48 16.64990 119.73214 14902 ft 341 kts 152°
2026-04-30 11:48 16.62933 119.74388 14903 ft 339 kts 152°
2026-04-30 11:49 16.60844 119.75581 14905 ft 339 kts 151°
2026-04-30 11:49 16.58781 119.76758 14906 ft 339 kts 151°
2026-04-30 11:49 16.56704 119.77943 14905 ft 339 kts 151°
2026-04-30 11:49 16.54639 119.79121 14904 ft 339 kts 152°
2026-04-30 11:50 16.52548 119.80313 14905 ft 339 kts 151°
2026-04-30 11:50 16.50476 119.81495 14905 ft 339 kts 151°
2026-04-30 11:50 16.48418 119.82669 14911 ft 340 kts 152°
2026-04-30 11:50 16.46335 119.83855 14975 ft 343 kts 151°
2026-04-30 11:51 16.44218 119.85061 14882 ft 339 kts 152°
2026-04-30 11:51 16.42156 119.86235 14918 ft 337 kts 151°
2026-04-30 11:51 16.40096 119.87407 14920 ft 337 kts 151°
2026-04-30 11:51 16.38032 119.88583 14921 ft 338 kts 151°
2026-04-30 11:52 16.35970 119.89756 14920 ft 337 kts 150°
2026-04-30 11:52 16.33905 119.90931 14926 ft 338 kts 150°
2026-04-30 11:52 16.31828 119.92114 14925 ft 338 kts 151°
2026-04-30 11:52 16.29780 119.93278 14929 ft 338 kts 150°
2026-04-30 11:53 16.27683 119.94471 14927 ft 339 kts 150°
2026-04-30 11:53 16.25635 119.95635 14924 ft 339 kts 150°
2026-04-30 11:53 16.23548 119.96822 14926 ft 338 kts 151°
2026-04-30 11:53 16.21492 119.97990 14927 ft 337 kts 151°
2026-04-30 11:54 16.19411 119.99172 14919 ft 338 kts 151°
2026-04-30 11:54 16.17343 120.00346 14680 ft 338 kts 151°
2026-04-30 11:54 16.15305 120.01504 14442 ft 336 kts 151°
2026-04-30 11:54 16.13233 120.02679 14209 ft 336 kts 151°
2026-04-30 11:55 16.11179 120.03845 13979 ft 337 kts 151°
2026-04-30 11:55 16.09114 120.05016 13742 ft 338 kts 151°
2026-04-30 11:55 16.07053 120.06186 13510 ft 338 kts 151°
2026-04-30 11:55 16.04987 120.07358 13274 ft 336 kts 151°
2026-04-30 11:56 16.02913 120.08534 13036 ft 335 kts 151°
2026-04-30 11:56 16.00857 120.09699 12802 ft 334 kts 150°
2026-04-30 11:56 15.98835 120.10845 12572 ft 332 kts 151°
2026-04-30 11:56 15.96796 120.12000 12338 ft 331 kts 151°
2026-04-30 11:57 15.94797 120.13133 12108 ft 329 kts 151°
2026-04-30 11:57 15.92767 120.14281 11873 ft 326 kts 151°
2026-04-30 11:57 15.90772 120.15411 11639 ft 326 kts 151°
2026-04-30 11:57 15.88813 120.16519 11408 ft 325 kts 150°
2026-04-30 11:58 15.86806 120.17655 11234 ft 318 kts 150°
2026-04-30 11:58 15.84894 120.18736 11020 ft 310 kts 150°
2026-04-30 11:58 15.83015 120.19799 10770 ft 304 kts 150°
2026-04-30 11:58 15.81176 120.20840 10525 ft 298 kts 150°
2026-04-30 11:59 15.79336 120.21880 10284 ft 297 kts 150°
2026-04-30 11:59 15.77524 120.22904 10047 ft 296 kts 149°
2026-04-30 11:59 15.75737 120.23915 9931 ft 293 kts 149°
2026-04-30 11:59 15.73919 120.24943 9962 ft 294 kts 150°
2026-04-30 12:00 15.72118 120.25960 9958 ft 295 kts 150°
2026-04-30 12:00 15.70316 120.26978 9952 ft 295 kts 149°
2026-04-30 12:00 15.68496 120.28006 9950 ft 295 kts 150°
2026-04-30 12:00 15.66703 120.29020 9958 ft 295 kts 149°
2026-04-30 12:01 15.64885 120.30045 9962 ft 295 kts 150°
2026-04-30 12:01 15.63091 120.31057 9959 ft 295 kts 149°
2026-04-30 12:01 15.61268 120.32087 9962 ft 295 kts 150°
2026-04-30 12:01 15.59479 120.33095 9961 ft 294 kts 150°
2026-04-30 12:02 15.57672 120.34114 9963 ft 294 kts 149°
2026-04-30 12:02 15.55854 120.35140 9965 ft 295 kts 150°
2026-04-30 12:02 15.54056 120.36153 9964 ft 294 kts 150°
2026-04-30 12:02 15.52245 120.37175 9966 ft 294 kts 149°
2026-04-30 12:03 15.50431 120.38198 9968 ft 294 kts 150°
2026-04-30 12:03 15.46844 120.40218 10074 ft 295 kts 150°
2026-04-30 12:03 15.45030 120.41239 10065 ft 294 kts 150°
2026-04-30 12:04 15.43233 120.42252 10060 ft 293 kts 150°
2026-04-30 12:04 15.41419 120.43243 10055 ft 294 kts 155°
2026-04-30 12:04 15.39468 120.43905 10060 ft 296 kts 161°
2026-04-30 12:04 15.37499 120.44527 10057 ft 295 kts 161°
2026-04-30 12:05 15.35504 120.45161 10054 ft 296 kts 161°
2026-04-30 12:05 15.33525 120.45789 10046 ft 295 kts 161°
2026-04-30 12:05 15.31561 120.46412 10049 ft 296 kts 161°
2026-04-30 12:05 15.29581 120.47041 10058 ft 296 kts 161°
2026-04-30 12:06 15.27622 120.47664 10038 ft 296 kts 161°
2026-04-30 12:06 15.25647 120.48291 10049 ft 295 kts 161°
2026-04-30 12:06 15.23669 120.48918 10056 ft 296 kts 161°
2026-04-30 12:06 15.21693 120.49545 10049 ft 295 kts 161°
2026-04-30 12:07 15.19727 120.50170 10047 ft 296 kts 161°
2026-04-30 12:07 15.17745 120.50798 10040 ft 295 kts 160°
2026-04-30 12:07 15.15778 120.51423 10037 ft 295 kts 160°
2026-04-30 12:07 15.13811 120.52047 10043 ft 296 kts 160°
2026-04-30 12:08 15.11844 120.52671 10035 ft 296 kts 160°
2026-04-30 12:08 15.09853 120.53303 10031 ft 297 kts 160°
2026-04-30 12:08 15.07890 120.53925 10032 ft 296 kts 160°
2026-04-30 12:08 15.05891 120.54559 10057 ft 297 kts 161°
2026-04-30 12:09 15.03927 120.55181 10027 ft 297 kts 160°
2026-04-30 12:09 15.01947 120.55808 10031 ft 297 kts 160°
2026-04-30 12:09 14.99954 120.56439 10040 ft 296 kts 160°
2026-04-30 12:09 14.97972 120.57067 10012 ft 296 kts 160°
2026-04-30 12:10 14.96009 120.57689 10031 ft 296 kts 160°
2026-04-30 12:10 14.94032 120.58316 10015 ft 297 kts 160°
2026-04-30 12:10 14.92051 120.58941 10023 ft 296 kts 160°
2026-04-30 12:10 14.90066 120.59569 10007 ft 296 kts 160°
2026-04-30 12:11 14.88112 120.60188 10021 ft 296 kts 160°
2026-04-30 12:11 14.86107 120.60822 10012 ft 296 kts 160°
2026-04-30 12:11 14.84139 120.61445 10010 ft 296 kts 160°
2026-04-30 12:11 14.82157 120.62071 10020 ft 296 kts 160°
2026-04-30 12:12 14.80183 120.62696 10010 ft 296 kts 160°
2026-04-30 12:12 14.78215 120.63319 10010 ft 297 kts 160°
2026-04-30 12:12 14.76252 120.63940 10013 ft 296 kts 160°
2026-04-30 12:12 14.74260 120.64568 10009 ft 296 kts 160°
2026-04-30 12:13 14.72295 120.65189 10011 ft 296 kts 160°
2026-04-30 12:13 14.70313 120.65815 10016 ft 296 kts 160°
2026-04-30 12:13 14.68334 120.66441 10023 ft 296 kts 160°
2026-04-30 12:13 14.66374 120.67058 10019 ft 296 kts 160°
2026-04-30 12:14 14.65120 120.67454 10020 ft 295 kts 160°
2026-04-30 12:14 14.63157 120.68072 10032 ft 294 kts 160°
2026-04-30 12:14 14.61253 120.68775 10023 ft 292 kts 150°
2026-04-30 12:14 14.59483 120.69815 10036 ft 292 kts 148°
2026-04-30 12:15 14.57709 120.70853 10019 ft 288 kts 148°
2026-04-30 12:15 14.56726 120.71427 10015 ft 281 kts 148°
2026-04-30 12:15 14.55902 120.71910 10014 ft 275 kts 147°
2026-04-30 12:15 14.54233 120.72826 10002 ft 271 kts 157°
2026-04-30 12:16 14.52341 120.73064 10027 ft 278 kts 185°
2026-04-30 12:16 14.50529 120.72385 10041 ft 284 kts 212°
2026-04-30 12:16 14.49157 120.70901 10035 ft 289 kts 240°
2026-04-30 12:16 14.48320 120.69033 10058 ft 288 kts 243°
2026-04-30 12:17 14.46359 120.65476 9872 ft 280 kts 229°
2026-04-30 12:17 14.44995 120.64059 9594 ft 278 kts 230°
2026-04-30 12:17 14.44132 120.62273 9104 ft 287 kts 257°
2026-04-30 12:18 14.43951 120.60199 8640 ft 293 kts 268°
2026-04-30 12:18 14.43859 120.58025 8251 ft 294 kts 268°
2026-04-30 12:18 14.43763 120.55939 8130 ft 285 kts 268°
2026-04-30 12:18 14.43666 120.53921 8098 ft 274 kts 268°
2026-04-30 12:19 14.43580 120.52188 8056 ft 265 kts 268°
2026-04-30 12:19 14.43483 120.50314 8023 ft 254 kts 268°
2026-04-30 12:19 14.43174 120.48550 7989 ft 244 kts 256°
2026-04-30 12:19 14.42760 120.46905 7975 ft 233 kts 256°
2026-04-30 12:20 14.42356 120.45311 7960 ft 223 kts 256°
2026-04-30 12:20 14.41977 120.43819 7935 ft 213 kts 256°
2026-04-30 12:20 14.41606 120.42361 7915 ft 202 kts 256°
2026-04-30 12:20 14.41264 120.41009 7876 ft 194 kts 257°
2026-04-30 12:21 14.40938 120.39545 8170 ft 221 kts 259°
2026-04-30 12:21 14.40191 120.38204 9068 ft 220 kts 214°
2026-04-30 12:21 14.38790 120.37686 9586 ft 219 kts 176°
2026-04-30 12:21 14.37257 120.37767 10168 ft 221 kts 173°
2026-04-30 12:22 14.35716 120.37846 10776 ft 225 kts 174°
2026-04-30 12:22 14.34126 120.37910 11068 ft 233 kts 175°
2026-04-30 12:22 14.32520 120.37973 11042 ft 226 kts 175°
2026-04-30 12:22 14.31999 120.37992 11023 ft 223 kts 175°